{"data":{"norad_id":69915,"intl_designator":"2026-156AY","name":"MISR-D 2","alt_names":[],"object_type":"PAYLOAD","status":"ACTIVE","operator":null,"country":"US","launch_date":"2026-07-07","launch_site_code":"AFWTR","launch_vehicle":null,"mission":null,"orbit_class":"UNKNOWN","rcs_meters":null,"size_class":null,"mass_kg":null,"dimensions":null,"purposes":[],"wikipedia_slug":null,"has_3d_model":false,"image_url":null,"decayed_at":null,"tle_current":{"epoch":"2026-09-19T12:40:01.367040Z","epoch_age_seconds":101835,"freshness":"FRESH","line1":"1 69915U 26156AY  26262.52779360  .00001159  00000+0  12021-3 0  9991","line2":"2 69915  97.7429 161.7160 0005130 264.1347  95.9287 14.91865061 11067","mean_motion":14.91865061,"eccentricity":0.000513,"inclination_deg":97.7429,"raan_deg":161.716,"arg_perigee_deg":264.1347,"mean_anomaly_deg":95.9287,"bstar":0.00012021,"rev_number":1106,"period_min":96.523475054424,"perigee_km":588.54460128668,"apogee_km":595.69608532091,"semimajor_km":6970.2573433038,"source":"CELESTRAK","updated_at":"2026-09-20T09:00:25.180530Z"}}}